Cosmos 1758 Rocket - Orbit

View from above orbital plane
View from above orbital plane
View from above satellite
View from above satellite

Ground track
Ground track

The orbit data is extracted from the following two-line orbital elements,

1 16792U 86046B   13143.17410479  .00000318  00000-0  36602-4 0  1584
2 16792 082.4818 159.8824 0026040 141.1078 290.3495 14.82218824454677
Epoch (UTC): 23 May 2013 04:10:42
Eccentricity: 0.0026040
inclination: 82.4818°
perigee height: 604 km
apogee height: 640 km
right ascension of ascending node: 159.8824°
argument of perigee: 141.1078°
revolutions per day: 14.82218824
mean anomaly at epoch: 290.3495°
orbit number at epoch: 45467

The dashed part of the orbit path shows where the satellite is in the earth's shadow,  

Developed and maintained by Chris Peat, Heavens-Above GmbH. Please read the updated FAQ before sending e-mail. Imprint. DLR